Regional Weather Roundup
Issued by NWS

Home | Current Version | Previous Version | Text Only | Print | Product List | Glossary Off
Versions: 1 2 3 4 5 6 7 8 9 10 11 12 13 14 15 16 17 18 19 20 21 22 23 24 25 26 27 28 29 30 31 32 33 34 35 36 37 38 39 40 41 42 43 44 45 46 47 48 49 50

000
ASUS43 KLOT 270106
RWRIL

ILLINOIS REGIONAL WEATHER ROUNDUP
NATIONAL WEATHER SERVICE CHICAGO/ROMEOVILLE IL
700 PM CST THU FEB 26 2015

NOTE: "FAIR" INDICATES FEW OR NO CLOUDS BELOW 12,000 FEET WITH NO
SIGNIFICANT WEATHER AND/OR OBSTRUCTIONS TO VISIBILITY.

* THESE STATIONS ARE NOT UNDER NWS QUALITY CONTROL. THEY ALSO MAY NOT
  REPORT WEATHER SUCH AS PRECIPITATION OR FOG.

ILZ001-002-007-009-015-016-024-270200-
NORTHWEST ILLINOIS

CITY           SKY/WX    TMP DP  RH WIND       PRES   REMARKS
MOLINE         CLEAR      7  -3  64 NW12      30.44R WCI  -8
STERLING*      CLEAR      7  -6  56 N3        30.41R
SAVANNA*       CLEAR      8  -6  52 W5        30.42R WCI  -1
$$

ILZ003-004-008-010-011-017-018-270200-
NORTH CENTRAL ILLINOIS

CITY           SKY/WX    TMP DP  RH WIND       PRES   REMARKS
ROCKFORD       CLEAR      7  -6  55 NW6       30.40R WCI  -3
FREEPORT*      CLEAR      4  -6  65 CALM      30.40R
ROCHELLE*      CLEAR      2  -6  69 CALM      30.40R
DE KALB*       CLEAR      5  -5  62 NW5       30.37R WCI  -4
PERU*          CLOUDY    11   2  67 NW8       30.41R WCI  -1
$$

ILZ005-006-012>014-019>023-270200-
NORTHEAST ILLINOIS

CITY           SKY/WX    TMP DP  RH WIND       PRES   REMARKS
CHICAGO-OHARE  PTCLDY     9  -5  53 NW12      30.36R WCI  -6
CHICAGO-MIDWAY PTCLDY    14  -1  51 NW9       30.36R WCI   2
AURORA         CLEAR      1  -8  66 NW9       30.38R WCI -14
LANSING*       MOCLDY    15   3  57 N5        30.35R WCI   8
JOLIET*        CLEAR     10  -2  59 NW6       30.39R WCI   0
WAUKEGAN       CLEAR      8  -6  52 NW6       30.36R WCI  -2
DUPAGE AIRPORT CLEAR      8  -4  58 NW8       30.36R WCI  -4
KANKAKEE*      CLOUDY    12   3  67 NW8       30.36R WCI   1
WHEELING       CLEAR     10  -5  50 NW8       30.38R WCI  -2
MORRIS*        CLEAR      7  -2  66 NW5       30.38R WCI  -2
ROMEOVILLE*    CLEAR      7  -2  66 NW8       30.37R WCI  -6
NORTHERLY ISL    N/A     14  -1  51 N8          N/A  WCI   3
$$

LMZ740>746-270200-
SOUTHERN LAKE MICHIGAN

STATION/POSITION SKY/WX   TEMP    WIND        PRES    VSBY  WAVE
                          AIR SEA DIR/SP/G                  HT/PER
                          (F)     (DEG/KT/KT) (MB)    (MI)  (FT/S)
WAUKEGAN HARBOR            11     310/  9/ 17   N/A
HARRISON CRIB              15     320/ 14/ 17   N/A
BURNHAM HARBOR             14     350/  8/ 13   N/A
CALUMET HARBOR             15     300/  5/  9 1026.5R
MICHIGAN CITY              14     340/  9/ 12   N/A
$$

ILZ025>027-034>036-040-047-049-050-058-095>099-270200-
WEST-CENTRAL ILLINOIS

CITY           SKY/WX    TMP DP  RH WIND       PRES   REMARKS
QUINCY         CLEAR      6  -5  60 NW9       30.46R WCI  -8
GALESBURG*     CLEAR      3  -4  72 NW6       30.43R WCI  -8
MACOMB*        CLEAR      3  -3  76 NW13      30.48R WCI -15
JACKSONVILLE*  MOCLDY    13   3  63 NW13      30.45R WCI  -1
PITTSFIELD*    CLEAR     10   1  67 NW9       30.47R WCI  -3
$$

ILZ028>032-037-038-041>044-048-051>054-059>061-270200-
CENTRAL ILLINOIS

CITY           SKY/WX    TMP DP  RH WIND       PRES   REMARKS
PONTIAC        CLOUDY    12   4  70 NW14      30.39R WCI  -3
BLOOMINGTON    CLOUDY    12   4  70 N12       30.38R WCI  -2
DECATUR        CLOUDY    17   9  70 N13       30.38R WCI   4
PEORIA         CLOUDY    12   5  73 VRB3      30.42R
LACON*         CLOUDY    11   1  64 N8        30.42R WCI  -1
LINCOLN*       CLOUDY    16   9  75 NW7       30.44R WCI   6
SPRINGFIELD    CLOUDY    14   5  67 NW16      30.42R WCI  -2
TAYLORVILLE    FLURRIES  18  10  73 NW16      30.40R WCI   3
$$

ILZ033-039-045-046-055>057-062-063-270200-
EAST-CENTRAL ILLINOIS

CITY           SKY/WX    TMP DP  RH WIND       PRES   REMARKS
CHAMPAIGN      PTCLDY    12   6  77 NW13      30.36R WCI  -3
DANVILLE*      CLOUDY    14   7  75 NW5       30.32R WCI   6
RANTOUL*       PTCLDY    13   8  79 NW8       30.36R WCI   2
MATTOON        CLOUDY    15   8  73 N8        30.35R WCI   4
PARIS*         CLEAR     15   7  71 CALM      30.35R
$$

ILZ079-100>102-270200-
SOUTHWEST ILLINOIS

CITY           SKY/WX    TMP DP  RH WIND       PRES   REMARKS
ALTON          CLOUDY    16   3  57 NW20      30.44R WCI  -1
BELLEVILLE     CLOUDY    19  10  68 N12       30.41R WCI   7
CAHOKIA*       CLOUDY    20   9  62 N14       30.44R WCI   7
SPARTA*        CLOUDY    20  12  70 NW7       30.41R WCI  11
$$

ILZ064>066-069>071-074>076-080>082-084>086-088>090-092>094-270200-
SOUTH-CENTRAL ILLINOIS

CITY           SKY/WX    TMP DP  RH WIND       PRES   REMARKS
CARBONDALE     FLURRIES  22  12  65 N14       30.40R WCI   9
CAIRO*         CLOUDY    27  18  67 N16       30.38R WCI  15
EFFINGHAM*     CLOUDY    19  11  69 NW7       30.38R WCI  10
MARION         CLOUDY    23  18  80 NW6       30.39R WCI  16
MT. VERNON     MOCLDY    19   9  63 CALM      30.38R
CENTRALIA*     MOCLDY    19  13  77 NW12      30.38R WCI   7
SALEM*         LGT SNOW  21  16  81 NW10      30.38R WCI  10
METROPOLIS*    LGT SNOW  25  20  80 NW12G17   30.35R WCI  15
$$

ILZ067-068-072-073-078-083-087-091-270200-
SOUTHEAST ILLINOIS

CITY           SKY/WX    TMP DP  RH WIND       PRES   REMARKS
LAWRENCEVILLE  CLEAR     20  10  65 N13       30.35R WCI   7
FLORA*         CLOUDY    21  14  75 N10       30.37R WCI  10
FAIRFIELD*     LGT SNOW  22  17  83 NW8       30.36R WCI  12
HARRISBURG*    FLURRIES  23  17  75 N9G20     30.38R WCI  13
ROBINSON*      CLEAR     18  10  70 NW8       30.36R WCI   8
CARMI*         CLEAR     24  17  73 NW10      30.35R WCI  14
$$

ABBREVIATIONS USED IN REMARKS
   TC - TEMPERATURE IN CELSIUS
  WCI - WIND CHILL INDEX
   HX - HEAT INDEX
  VSB - VISIBILITY
$$



USA.gov is the U.S. government's official web portal to all federal, state and local government web resources and services.